| time (UTC) | temp F | wind direction | speed knots | gust knots | rain 1hr in | rain 24hr in | rain mn in | humidity % | barometer mb |
| 20260903180301 | 92 | 92 | 3.5 | 6.1 | 0.00 | 0.00 | 0.00 | 73 | 1014.2 |
| 20260903180005 | 92 | 92 | 3.5 | 6.1 | 0.00 | 0.00 | 0.00 | 73 | 1014.2 |
| 20260903175837 | 91 | 89 | 3.5 | 7.8 | 0.00 | 0.00 | 0.00 | 73 | 1014.3 |
| 20260903175505 | 91 | 89 | 3.5 | 7.8 | 0.00 | 0.00 | 0.00 | 73 | 1014.3 |
| 20260903174934 | 92 | 94 | 3.5 | 7.8 | 0.00 | 0.00 | 0.00 | 73 | 1014.4 |
| 20260903174434 | 93 | 102 | 3.5 | 6.1 | 0.00 | 0.00 | 0.00 | 71 | 1014.5 |
| 20260903173934 | 93 | 102 | 2.6 | 6.1 | 0.00 | 0.00 | 0.00 | 74 | 1014.5 |
| 20260903173404 | 92 | 98 | 1.7 | 3.5 | 0.00 | 0.00 | 0.00 | 71 | 1014.5 |
| 20260903172716 | 92 | 123 | 1.7 | 5.2 | 0.00 | 0.00 | 0.00 | 74 | 1014.8 |
| 20260903172404 | 92 | 123 | 1.7 | 5.2 | 0.00 | 0.00 | 0.00 | 74 | 1014.8 |
| 20260903171641 | 90 | 106 | 1.7 | 2.6 | 0.00 | 0.00 | 0.00 | 75 | 1014.8 |
| 20260903171404 | 90 | 106 | 1.7 | 2.6 | 0.00 | 0.00 | 0.00 | 75 | 1014.8 |
| 20260903170834 | 90 | 171 | 1.7 | 5.2 | 0.00 | 0.00 | 0.00 | 73 | 1014.8 |
| 20260903164234 | 90 | 107 | 2.6 | 7.0 | 0.00 | 0.00 | 0.00 | 75 | 1015.1 |
| 20260903163704 | 90 | 108 | 2.6 | 7.0 | 0.00 | 0.00 | 0.00 | 77 | 1015.2 |
| 20260903162634 | 89 | 156 | 1.7 | 5.2 | 0.00 | 0.00 | 0.00 | 77 | 1015.3 |
| 20260903161604 | 90 | 131 | 1.7 | 6.1 | 0.00 | 0.00 | 0.00 | 76 | 1015.3 |
| 20260903161352 | 89 | 155 | 1.7 | 5.2 | 0.00 | 0.00 | 0.00 | 78 | 1015.3 |
| 20260903161035 | 89 | 155 | 1.7 | 5.2 | 0.00 | 0.00 | 0.00 | 78 | 1015.3 |
| 20260903155504 | 89 | 126 | 2.6 | 5.2 | 0.00 | 0.00 | 0.00 | 77 | 1015.4 |
| 20260903155004 | 89 | 128 | 1.7 | 5.2 | 0.00 | 0.00 | 0.00 | 79 | 1015.4 |
| 20260903154504 | 89 | 148 | 2.6 | 5.2 | 0.00 | 0.00 | 0.00 | 76 | 1015.5 |
| 20260903154342 | 90 | 115 | 1.7 | 6.1 | 0.00 | 0.00 | 0.00 | 79 | 1015.5 |
| 20260903153934 | 90 | 115 | 1.7 | 6.1 | 0.00 | 0.00 | 0.00 | 79 | 1015.5 |
| 20260903153235 | 88 | 119 | 1.7 | 5.2 | 0.00 | 0.00 | 0.00 | 80 | 1015.6 |
| 20260903152934 | 88 | 119 | 1.7 | 5.2 | 0.00 | 0.00 | 0.00 | 80 | 1015.6 |
| 20260903152434 | 87 | 130 | 1.7 | 6.1 | 0.00 | 0.00 | 0.00 | 84 | 1015.5 |
| 20260903151404 | 87 | 143 | 2.6 | 6.1 | 0.00 | 0.00 | 0.00 | 81 | 1015.5 |
| 20260903150904 | 87 | 113 | 2.6 | 6.1 | 0.00 | 0.00 | 0.00 | 81 | 1015.6 |
| 20260903145306 | 85 | 154 | 1.7 | 5.2 | 0.00 | 0.00 | 0.00 | 86 | 1015.5 |
| 20260903144734 | 84 | 131 | 1.7 | 5.2 | 0.00 | 0.00 | 0.00 | 86 | 1015.7 |
| 20260903143134 | 84 | 139 | 1.7 | 4.3 | 0.00 | 0.00 | 0.00 | 87 | 1015.6 |
| 20260903142634 | 84 | 135 | 1.7 | 5.2 | 0.00 | 0.00 | 0.00 | 89 | 1015.5 |
| 20260903142105 | 84 | 164 | 1.7 | 5.2 | 0.00 | 0.00 | 0.00 | 88 | 1015.5 |
| 20260903141604 | 84 | 120 | 2.6 | 7.0 | 0.00 | 0.00 | 0.00 | 86 | 1015.5 |
| 20260903140813 | 84 | 124 | 0.9 | 5.2 | 0.00 | 0.00 | 0.00 | 89 | 1015.4 |
| 20260903140505 | 84 | 124 | 0.9 | 5.2 | 0.00 | 0.00 | 0.00 | 89 | 1015.4 |
| 20260903135934 | 83 | 116 | 1.7 | 5.2 | 0.00 | 0.00 | 0.00 | 90 | 1015.4 |
| 20260903135434 | 83 | 104 | 2.6 | 7.0 | 0.00 | 0.00 | 0.00 | 89 | 1015.4 |
| 20260903134434 | 83 | 104 | 1.7 | 5.2 | 0.00 | 0.00 | 0.00 | 94 | 1015.4 |
| 20260903133934 | 82 | 98 | 0.9 | 2.6 | 0.00 | 0.00 | 0.00 | 94 | 1015.3 |
| 20260903132334 | 82 | 114 | 0.9 | 2.6 | 0.00 | 0.00 | 0.00 | 96 | 1015.2 |
| 20260903131804 | 82 | 111 | 1.7 | 2.6 | 0.00 | 0.00 | 0.00 | 94 | 1015.2 |
| 20260903131235 | 82 | 100 | 1.7 | 3.5 | 0.00 | 0.00 | 0.00 | 97 | 1015.3 |
| 20260903130734 | 81 | 101 | 0.9 | 3.5 | 0.00 | 0.00 | 0.00 | 96 | 1015.3 |
| 20260903130234 | 81 | 104 | 1.7 | 3.5 | 0.00 | 0.00 | 0.00 | 97 | 1015.3 |
| 20260903125946 | 81 | 101 | 2.6 | 5.2 | 0.00 | 0.00 | 0.00 | 98 | 1015.2 |
| 20260903125705 | 81 | 101 | 2.6 | 5.2 | 0.00 | 0.00 | 0.00 | 98 | 1015.2 |
| 20260903124704 | 80 | 90 | 1.7 | 2.6 | 0.00 | 0.00 | 0.00 | 97 | 1015.2 |
| 20260903123843 | 80 | 96 | 2.6 | 6.1 | 0.00 | 0.00 | 0.00 | 98 | 1015.2 |
| 20260903123634 | 80 | 96 | 2.6 | 6.1 | 0.00 | 0.00 | 0.00 | 98 | 1015.2 |
| 20260903123105 | 80 | 98 | 3.5 | 7.0 | 0.00 | 0.00 | 0.00 | 98 | 1015.1 |
| 20260903122007 | 80 | 86 | 1.7 | 7.0 | 0.00 | 0.00 | 0.00 | 99 | 1015.1 |
| 20260903120714 | 79 | 88 | 0.9 | 2.6 | 0.00 | 0.00 | 0.00 | 99 | 1014.8 |
| 20260903120504 | 79 | 88 | 0.9 | 2.6 | 0.00 | 0.00 | 0.00 | 99 | 1014.8 |
| 20260903115434 | 79 | 82 | 1.7 | 3.5 | 0.00 | 0.00 | 0.00 | 99 | 1014.8 |
| 20260903114935 | 79 | 79 | 1.7 | 2.6 | 0.00 | 0.00 | 0.00 | 99 | 1014.7 |
| 20260903114434 | 79 | 79 | 0.9 | 2.6 | 0.00 | 0.00 | 0.00 | 100 | 1014.5 |
| 20260903113905 | 79 | 76 | 0.9 | 2.6 | 0.00 | 0.00 | 0.00 | 100 | 1014.4 |
| 20260903113334 | 79 | 65 | 0.9 | 2.6 | 0.00 | 0.00 | 0.00 | 99 | 1014.4 |
| 20260903112834 | 79 | 72 | 0.9 | 2.6 | 0.00 | 0.00 | 0.00 | 100 | 1014.3 |
| 20260903112334 | 79 | 80 | 0.9 | 2.6 | 0.00 | 0.00 | 0.00 | 100 | 1014.2 |
| 20260903111804 | 79 | 81 | 0.9 | 2.6 | 0.00 | 0.00 | 0.00 | 100 | 1014.1 |
| 20260903110734 | 78 | 79 | 1.7 | 3.5 | 0.00 | 0.00 | 0.00 | 100 | 1013.9 |
| 20260903105937 | 79 | 78 | 1.7 | 3.5 | 0.00 | 0.00 | 0.00 | 100 | 1014.0 |
| 20260903105704 | 79 | 78 | 1.7 | 3.5 | 0.00 | 0.00 | 0.00 | 100 | 1014.0 |
| 20260903104840 | 79 | 79 | 1.7 | 6.1 | 0.00 | 0.00 | 0.00 | 100 | 1013.8 |
| 20260903104634 | 79 | 79 | 1.7 | 6.1 | 0.00 | 0.00 | 0.00 | 100 | 1013.8 |
| 20260903104338 | 79 | 83 | 1.7 | 6.1 | 0.00 | 0.00 | 0.00 | 100 | 1013.7 |
| 20260903104134 | 79 | 83 | 1.7 | 6.1 | 0.00 | 0.00 | 0.00 | 100 | 1013.7 |
| 20260903103604 | 79 | 80 | 1.7 | 5.2 | 0.00 | 0.00 | 0.00 | 100 | 1013.6 |
| 20260903102036 | 79 | 83 | 2.6 | 7.0 | 0.00 | 0.00 | 0.00 | 100 | 1013.6 |
| 20260903100934 | 79 | 90 | 2.6 | 5.2 | 0.00 | 0.00 | 0.00 | 99 | 1013.8 |
| 20260903100718 | 79 | 89 | 2.6 | 6.1 | 0.00 | 0.00 | 0.00 | 99 | 1013.7 |
| 20260903100434 | 79 | 89 | 2.6 | 6.1 | 0.00 | 0.00 | 0.00 | 99 | 1013.7 |
| 20260903095452 | 79 | 79 | 1.7 | 7.0 | 0.00 | 0.00 | 0.00 | 99 | 1013.7 |
| 20260903095224 | 79 | 79 | 1.7 | 7.0 | 0.00 | 0.00 | 0.00 | 99 | 1013.7 |
| 20260903094834 | 79 | 79 | 1.7 | 7.0 | 0.00 | 0.00 | 0.00 | 99 | 1013.7 |
| 20260903093804 | 79 | 92 | 3.5 | 7.0 | 0.00 | 0.00 | 0.00 | 99 | 1013.8 |
| 20260903093702 | 80 | 80 | 1.7 | 7.0 | 0.00 | 0.00 | 0.00 | 97 | 1014.1 |
| 20260903093657 | 80 | 85 | 1.7 | 5.2 | 0.00 | 0.00 | 0.00 | 97 | 1014.2 |
| 20260903093655 | 80 | 97 | 2.6 | 5.2 | 0.00 | 0.00 | 0.00 | 97 | 1014.1 |
| 20260903093648 | 80 | 102 | 3.5 | 6.1 | 0.00 | 0.00 | 0.00 | 97 | 1014.2 |
| 20260903093234 | 79 | 95 | 3.5 | 7.0 | 0.00 | 0.00 | 0.00 | 99 | 1013.8 |
| 20260903092514 | 79 | 90 | 3.5 | 7.0 | 0.00 | 0.00 | 0.00 | 99 | 1013.7 |
| 20260903092205 | 79 | 90 | 3.5 | 7.0 | 0.00 | 0.00 | 0.00 | 99 | 1013.7 |
| 20260903090947 | 79 | 89 | 3.5 | 7.0 | 0.00 | 0.00 | 0.00 | 99 | 1013.6 |
| 20260903090634 | 79 | 89 | 3.5 | 7.0 | 0.00 | 0.00 | 0.00 | 99 | 1013.6 |
| 20260903090351 | 79 | 90 | 3.5 | 7.0 | 0.00 | 0.00 | 0.00 | 99 | 1013.6 |
| 20260903090104 | 79 | 90 | 3.5 | 7.0 | 0.00 | 0.00 | 0.00 | 99 | 1013.6 |
| 20260903085603 | 79 | 90 | 2.6 | 6.1 | 0.00 | 0.00 | 0.00 | 99 | 1013.5 |
| 20260903084222 | 78 | 105 | 1.7 | 3.5 | 0.00 | 0.00 | 0.00 | 99 | 1013.5 |
| 20260903083934 | 78 | 105 | 1.7 | 3.5 | 0.00 | 0.00 | 0.00 | 99 | 1013.5 |
| 20260903083151 | 79 | 97 | 2.6 | 5.2 | 0.00 | 0.00 | 0.00 | 99 | 1013.5 |
| 20260903082904 | 79 | 97 | 2.6 | 5.2 | 0.00 | 0.00 | 0.00 | 99 | 1013.5 |
| 20260903082630 | 79 | 92 | 2.6 | 6.1 | 0.00 | 0.00 | 0.00 | 99 | 1013.4 |
| 20260903082404 | 79 | 92 | 2.6 | 6.1 | 0.00 | 0.00 | 0.00 | 99 | 1013.4 |
| 20260903082126 | 79 | 86 | 1.7 | 6.1 | 0.00 | 0.00 | 0.00 | 99 | 1013.5 |
| 20260903081904 | 79 | 86 | 1.7 | 6.1 | 0.00 | 0.00 | 0.00 | 99 | 1013.5 |
| 20260903081334 | 79 | 89 | 1.7 | 3.5 | 0.00 | 0.00 | 0.00 | 99 | 1013.5 |
| 20260903081040 | 79 | 90 | 1.7 | 3.5 | 0.00 | 0.00 | 0.00 | 99 | 1013.5 |
| 20260903080804 | 79 | 90 | 1.7 | 3.5 | 0.00 | 0.00 | 0.00 | 99 | 1013.5 |
| 20260903080036 | 79 | 96 | 2.6 | 6.1 | 0.00 | 0.00 | 0.00 | 99 | 1013.7 |
| 20260903075734 | 79 | 96 | 2.6 | 6.1 | 0.00 | 0.00 | 0.00 | 99 | 1013.7 |
| 20260903075508 | 79 | 87 | 1.7 | 6.1 | 0.00 | 0.00 | 0.00 | 99 | 1013.8 |
| 20260903075234 | 79 | 87 | 1.7 | 6.1 | 0.00 | 0.00 | 0.00 | 99 | 1013.8 |
| 20260903075004 | 79 | 84 | 1.7 | 6.1 | 0.00 | 0.00 | 0.00 | 99 | 1013.8 |
| 20260903074704 | 79 | 84 | 1.7 | 6.1 | 0.00 | 0.00 | 0.00 | 99 | 1013.8 |
| 20260903074446 | 79 | 81 | 0.9 | 2.6 | 0.00 | 0.00 | 0.00 | 99 | 1013.8 |
| 20260903074134 | 79 | 81 | 0.9 | 2.6 | 0.00 | 0.00 | 0.00 | 99 | 1013.8 |
| 20260903073634 | 79 | 80 | 0.9 | 1.7 | 0.00 | 0.00 | 0.00 | 98 | 1013.8 |
| 20260903072604 | 79 | 90 | 0.9 | 2.6 | 0.00 | 0.00 | 0.00 | 98 | 1014.0 |
| 20260903070706 | 80 | 84 | 0.9 | 2.6 | 0.00 | 0.00 | 0.00 | 98 | 1013.9 |
| 20260903070404 | 80 | 84 | 0.9 | 2.6 | 0.00 | 0.00 | 0.00 | 98 | 1013.9 |
| 20260903065646 | 80 | 81 | 0.9 | 2.6 | 0.00 | 0.00 | 0.00 | 97 | 1014.2 |
| 20260903065334 | 80 | 81 | 0.9 | 2.6 | 0.00 | 0.00 | 0.00 | 97 | 1014.2 |
| 20260903064834 | 80 | 81 | 1.7 | 3.5 | 0.00 | 0.00 | 0.00 | 97 | 1014.2 |
| 20260903064334 | 80 | 87 | 1.7 | 5.2 | 0.00 | 0.00 | 0.00 | 97 | 1014.2 |
| 20260903063804 | 80 | 88 | 1.7 | 5.2 | 0.00 | 0.00 | 0.00 | 97 | 1014.1 |
| 20260903063447 | 80 | 80 | 1.7 | 7.0 | 0.00 | 0.00 | 0.00 | 97 | 1014.1 |
| 20260903063235 | 80 | 80 | 1.7 | 7.0 | 0.00 | 0.00 | 0.00 | 97 | 1014.1 |
| 20260903061829 | 80 | 85 | 1.7 | 5.2 | 0.00 | 0.00 | 0.00 | 97 | 1014.2 |
| 20260903061634 | 80 | 85 | 1.7 | 5.2 | 0.00 | 0.00 | 0.00 | 97 | 1014.2 |
| 20260903061104 | 80 | 97 | 2.6 | 5.2 | 0.00 | 0.00 | 0.00 | 97 | 1014.1 |
| 20260903060604 | 80 | 102 | 3.5 | 6.1 | 0.00 | 0.00 | 0.00 | 97 | 1014.2 |
| 20260903054740 | 77 | 23 | 0.9 | 1.7 | 0.00 | 0.00 | 0.00 | 99 | 1015.5 |
| 20260903054734 | 76 | 98 | 0.0 | 0.9 | 0.00 | 0.00 | 0.00 | 99 | 1016.2 |
| 20260903054732 | 92 | 98 | 4.3 | 9.6 | 0.00 | 0.33 | 0.00 | 71 | 1017.0 |
| 20260903052934 | 80 | 106 | 4.3 | 7.8 | 0.00 | 0.00 | 0.00 | 97 | 1014.5 |
| 20260903052807 | 80 | 104 | 4.3 | 7.8 | 0.00 | 0.00 | 0.00 | 96 | 1014.6 |
| 20260903052403 | 80 | 104 | 4.3 | 7.8 | 0.00 | 0.00 | 0.00 | 96 | 1014.6 |
| 20260903051646 | 80 | 99 | 4.3 | 7.8 | 0.00 | 0.00 | 0.00 | 96 | 1014.7 |
| 20260903051334 | 80 | 99 | 4.3 | 7.8 | 0.00 | 0.00 | 0.00 | 96 | 1014.7 |
| 20260903050804 | 80 | 100 | 4.3 | 7.8 | 0.00 | 0.00 | 0.00 | 96 | 1014.8 |
| 20260903050234 | 80 | 98 | 5.2 | 7.8 | 0.00 | 0.00 | 0.00 | 96 | 1014.9 |
| 20260903045704 | 80 | 96 | 6.1 | 8.7 | 0.00 | 0.00 | 0.00 | 96 | 1014.9 |
| 20260903044633 | 80 | 102 | 5.2 | 8.7 | 0.00 | 0.00 | 0.00 | 96 | 1015.0 |
| 20260903044134 | 80 | 102 | 5.2 | 8.7 | 0.00 | 0.00 | 0.00 | 96 | 1015.0 |
| 20260903043922 | 80 | 101 | 5.2 | 7.8 | 0.00 | 0.00 | 0.00 | 96 | 1015.1 |
| 20260903043634 | 80 | 101 | 5.2 | 7.8 | 0.00 | 0.00 | 0.00 | 96 | 1015.1 |
| 20260903043134 | 80 | 103 | 5.2 | 8.7 | 0.00 | 0.00 | 0.00 | 96 | 1015.1 |
| 20260903042828 | 80 | 102 | 6.1 | 9.6 | 0.00 | 0.00 | 0.00 | 96 | 1015.1 |
| 20260903042633 | 80 | 102 | 6.1 | 9.6 | 0.00 | 0.00 | 0.00 | 96 | 1015.1 |
| 20260903041035 | 81 | 100 | 4.3 | 7.8 | 0.00 | 0.00 | 0.00 | 95 | 1015.3 |
| 20260903035720 | 81 | 102 | 6.1 | 9.6 | 0.00 | 0.00 | 0.00 | 96 | 1015.1 |
| 20260903035506 | 81 | 102 | 6.1 | 9.6 | 0.00 | 0.00 | 0.00 | 96 | 1015.1 |
| 20260903034711 | 81 | 98 | 7.0 | 9.6 | 0.00 | 0.00 | 0.00 | 95 | 1015.0 |
| 20260903034434 | 81 | 98 | 7.0 | 9.6 | 0.00 | 0.00 | 0.00 | 95 | 1015.0 |
| 20260903033704 | 81 | 92 | 5.2 | 9.6 | 0.00 | 0.00 | 0.00 | 95 | 1015.1 |
| 20260903033334 | 81 | 92 | 5.2 | 9.6 | 0.00 | 0.00 | 0.00 | 95 | 1015.1 |
| 20260903032234 | 80 | 90 | 4.3 | 7.8 | 0.00 | 0.00 | 0.00 | 95 | 1015.3 |
| 20260903031950 | 80 | 94 | 4.3 | 7.8 | 0.00 | 0.00 | 0.00 | 96 | 1015.2 |
| 20260903031704 | 80 | 94 | 4.3 | 7.8 | 0.00 | 0.00 | 0.00 | 96 | 1015.2 |
| 20260903030634 | 80 | 84 | 2.6 | 7.0 | 0.00 | 0.00 | 0.00 | 96 | 1015.2 |
| 20260903030447 | 80 | 83 | 2.6 | 6.1 | 0.00 | 0.00 | 0.00 | 96 | 1015.4 |
| 20260903030134 | 80 | 83 | 2.6 | 6.1 | 0.00 | 0.00 | 0.00 | 96 | 1015.4 |
| 20260903023329 | 80 | 54 | 0.0 | 1.7 | 0.00 | 0.00 | 0.00 | 97 | 1015.3 |
| 20260903023104 | 80 | 54 | 0.0 | 1.7 | 0.00 | 0.00 | 0.00 | 97 | 1015.3 |
| 20260903020434 | 80 | 54 | 0.9 | 1.7 | 0.00 | 0.00 | 0.00 | 97 | 1015.2 |
| 20260903015711 | 80 | 51 | 0.9 | 1.7 | 0.00 | 0.00 | 0.00 | 97 | 1015.3 |
| 20260903015434 | 80 | 51 | 0.9 | 1.7 | 0.00 | 0.00 | 0.00 | 97 | 1015.3 |
| 20260903014713 | 80 | 46 | 0.9 | 1.7 | 0.00 | 0.00 | 0.00 | 96 | 1015.0 |
| 20260903014334 | 80 | 46 | 0.9 | 1.7 | 0.00 | 0.00 | 0.00 | 96 | 1015.0 |
| 20260903014114 | 80 | 46 | 0.9 | 1.7 | 0.00 | 0.00 | 0.00 | 96 | 1014.9 |
| 20260903013834 | 80 | 46 | 0.9 | 1.7 | 0.00 | 0.00 | 0.00 | 96 | 1014.9 |
| 20260903012956 | 80 | 45 | 0.9 | 2.6 | 0.00 | 0.00 | 0.00 | 96 | 1015.0 |
| 20260903012734 | 80 | 45 | 0.9 | 2.6 | 0.00 | 0.00 | 0.00 | 96 | 1015.0 |
| 20260903010922 | 80 | 85 | 0.9 | 0.9 | 0.00 | 0.00 | 0.00 | 94 | 1014.7 |
| 20260903010634 | 80 | 85 | 0.9 | 0.9 | 0.00 | 0.00 | 0.00 | 94 | 1014.7 |
| 20260903005825 | 80 | 66 | 0.9 | 1.7 | 0.00 | 0.00 | 0.00 | 94 | 1014.4 |
| 20260903005605 | 80 | 66 | 0.9 | 1.7 | 0.00 | 0.00 | 0.00 | 94 | 1014.4 |
| 20260903004357 | 80 | 29 | 0.9 | 2.6 | 0.00 | 0.00 | 0.00 | 94 | 1014.2 |
| 20260903003934 | 80 | 29 | 0.9 | 2.6 | 0.00 | 0.00 | 0.00 | 94 | 1014.2 |
| 20260903002834 | 80 | 40 | 0.9 | 2.6 | 0.00 | 0.00 | 0.00 | 94 | 1014.3 |
| 20260903002333 | 80 | 55 | 0.9 | 1.7 | 0.00 | 0.00 | 0.00 | 95 | 1014.3 |
| 20260903001834 | 80 | 74 | 0.9 | 2.6 | 0.00 | 0.00 | 0.00 | 95 | 1014.3 |
| 20260903001334 | 80 | 65 | 0.9 | 2.6 | 0.00 | 0.00 | 0.00 | 95 | 1014.4 |
| 20260903000804 | 80 | 50 | 0.9 | 1.7 | 0.00 | 0.00 | 0.00 | 95 | 1014.4 |
| 20260902233821 | 80 | 45 | 0.9 | 1.7 | 0.00 | 0.00 | 0.00 | 92 | 1014.5 |
| 20260902233634 | 80 | 45 | 0.9 | 1.7 | 0.00 | 0.00 | 0.00 | 92 | 1014.5 |
| 20260902233134 | 80 | 41 | 0.9 | 1.7 | 0.00 | 0.00 | 0.00 | 91 | 1014.4 |
| 20260902231004 | 80 | 51 | 0.9 | 1.7 | 0.00 | 0.00 | 0.00 | 90 | 1014.0 |
| 20260902230433 | 80 | 60 | 0.0 | 0.9 | 0.00 | 0.00 | 0.00 | 90 | 1014.2 |
| 20260902225934 | 80 | 89 | 0.0 | 0.9 | 0.00 | 0.00 | 0.00 | 90 | 1014.1 |
| 20260902224904 | 80 | 90 | 0.9 | 2.6 | 0.00 | 0.00 | 0.00 | 90 | 1013.7 |
| 20260902224628 | 80 | 78 | 0.9 | 1.7 | 0.00 | 0.00 | 0.00 | 90 | 1013.6 |
| 20260902224405 | 80 | 78 | 0.9 | 1.7 | 0.00 | 0.00 | 0.00 | 90 | 1013.6 |
| 20260902223708 | 80 | 44 | 0.9 | 2.6 | 0.00 | 0.00 | 0.00 | 90 | 1014.0 |
| 20260902223334 | 80 | 44 | 0.9 | 2.6 | 0.00 | 0.00 | 0.00 | 90 | 1014.0 |
| 20260902223151 | 80 | 15 | 0.9 | 2.6 | 0.00 | 0.00 | 0.00 | 90 | 1014.3 |
| 20260902222834 | 80 | 15 | 0.9 | 2.6 | 0.00 | 0.00 | 0.00 | 90 | 1014.3 |
| 20260902220805 | 81 | 75 | 1.7 | 6.1 | 0.00 | 0.00 | 0.00 | 92 | 1014.1 |
| 20260902220037 | 81 | 44 | 1.7 | 2.6 | 0.00 | 0.00 | 0.00 | 92 | 1013.9 |
| 20260902215734 | 81 | 44 | 1.7 | 2.6 | 0.00 | 0.00 | 0.00 | 92 | 1013.9 |
| 20260902215234 | 82 | 42 | 1.7 | 2.6 | 0.00 | 0.00 | 0.00 | 92 | 1013.6 |
| 20260902215121 | 82 | 34 | 1.7 | 2.6 | 0.00 | 0.00 | 0.00 | 90 | 1013.7 |
| 20260902214733 | 82 | 34 | 1.7 | 2.6 | 0.00 | 0.00 | 0.00 | 90 | 1013.7 |
| 20260902214234 | 82 | 29 | 1.7 | 4.3 | 0.00 | 0.00 | 0.00 | 90 | 1013.8 |
| 20260902212733 | 82 | 28 | 2.6 | 7.0 | 0.00 | 0.00 | 0.00 | 91 | 1013.3 |
| 20260902212328 | 82 | 33 | 1.7 | 7.0 | 0.00 | 0.00 | 0.00 | 90 | 1013.4 |
| 20260902212203 | 82 | 33 | 1.7 | 7.0 | 0.00 | 0.00 | 0.00 | 90 | 1013.4 |
| 20260902211103 | 81 | 345 | 2.6 | 4.3 | 0.00 | 0.00 | 0.00 | 91 | 1013.9 |
| 20260902205003 | 82 | 331 | 2.6 | 6.1 | 0.00 | 0.00 | 0.00 | 85 | 1014.3 |
| 20260902204700 | 82 | 326 | 3.5 | 7.0 | 0.00 | 0.00 | 0.00 | 85 | 1014.0 |
| 20260902204433 | 82 | 326 | 3.5 | 7.0 | 0.00 | 0.00 | 0.00 | 85 | 1014.0 |
| 20260902203658 | 84 | 352 | 2.6 | 5.2 | 0.00 | 0.00 | 0.00 | 82 | 1013.6 |
| 20260902203334 | 84 | 352 | 2.6 | 5.2 | 0.00 | 0.00 | 0.00 | 82 | 1013.6 |
| 20260902203117 | 85 | 353 | 2.6 | 4.3 | 0.00 | 0.00 | 0.00 | 83 | 1013.9 |
| 20260902202833 | 85 | 353 | 2.6 | 4.3 | 0.00 | 0.00 | 0.00 | 83 | 1013.9 |
| 20260902202333 | 86 | 4 | 2.6 | 7.8 | 0.00 | 0.00 | 0.00 | 83 | 1013.9 |
| 20260902201011 | 88 | 82 | 6.1 | 11.3 | 0.00 | 0.00 | 0.00 | 79 | 1013.6 |
| 20260902200734 | 88 | 82 | 6.1 | 11.3 | 0.00 | 0.00 | 0.00 | 79 | 1013.6 |
| 20260902195633 | 91 | 94 | 5.2 | 13.9 | 0.00 | 0.00 | 0.00 | 75 | 1013.6 |
| 20260902195437 | 93 | 102 | 2.6 | 8.7 | 0.00 | 0.00 | 0.00 | 71 | 1013.6 |
| 20260902195133 | 93 | 102 | 2.6 | 8.7 | 0.00 | 0.00 | 0.00 | 71 | 1013.6 |
| 20260902194826 | 94 | 108 | 1.7 | 5.2 | 0.00 | 0.00 | 0.00 | 71 | 1013.6 |
| 20260902194633 | 94 | 108 | 1.7 | 5.2 | 0.00 | 0.00 | 0.00 | 71 | 1013.6 |
| 20260902194133 | 93 | 94 | 1.7 | 3.5 | 0.00 | 0.00 | 0.00 | 72 | 1013.6 |
| 20260902193816 | 94 | 72 | 0.9 | 2.6 | 0.00 | 0.00 | 0.00 | 69 | 1013.6 |
| 20260902193633 | 94 | 72 | 0.9 | 2.6 | 0.00 | 0.00 | 0.00 | 69 | 1013.6 |
| 20260902193103 | 94 | 69 | 1.7 | 3.5 | 0.00 | 0.00 | 0.00 | 70 | 1013.7 |
| 20260902190003 | 93 | 46 | 1.7 | 3.5 | 0.00 | 0.00 | 0.00 | 72 | 1014.2 |
| 20260902185003 | 93 | 91 | 2.6 | 5.2 | 0.00 | 0.00 | 0.00 | 73 | 1014.4 |
| 20260902184003 | 92 | 3 | 0.9 | 2.6 | 0.00 | 0.00 | 0.00 | 71 | 1014.6 |
| 20260902182933 | 91 | 87 | 1.7 | 3.5 | 0.00 | 0.00 | 0.00 | 75 | 1014.7 |
| 20260902182806 | 91 | 88 | 1.7 | 3.5 | 0.00 | 0.00 | 0.00 | 73 | 1014.8 |
| 20260902182433 | 91 | 88 | 1.7 | 3.5 | 0.00 | 0.00 | 0.00 | 73 | 1014.8 |
| 20260902181403 | 90 | 89 | 1.7 | 5.2 | 0.00 | 0.00 | 0.00 | 76 | 1015.0 |
| 20260902181211 | 89 | 89 | 1.7 | 5.2 | 0.00 | 0.00 | 0.00 | 77 | 1015.0 |
| 20260902180903 | 89 | 89 | 1.7 | 5.2 | 0.00 | 0.00 | 0.00 | 77 | 1015.0 |